CAPE
0 0 0 1 2 1 9 10 2 11 13 9 11 13 16 10 11 13 18 15 18 15
0 0 0 0 1 1 10 15 10 7 10 16 20 29 10 9 12 14 13 17 13 10
0 0 0 0 0 1 2 6 15 18 20 24 23 10 9 13 12 10 18 21 16 6
0 0 0 0 0 4 0 6 18 24 30 27 32 5 13 5 9 11 14 18 12 12
0 0 0 0 0 0 0 1 17 22 32 40 23 15 18 14 13 12 12 16 7 14
0 0 0 0 0 0 0 1 1 13 26 22 12 20 12 16 14 11 12 10 10 14
0 0 0 0 0 0 1 6 2 3 18 12 9 19 12 16 10 9 10 11 8 5
0 0 0 0 0 0 2 9 1 4 7 4 7 15 10 18 9 6 6 7 8 5
0 0 1 0 0 0 0 3 0 2 12 3 19 10 17 19 7 7 6 5 6 7
0 0 0 1 0 0 0 1 0 0 7 3 7 10 17 24 5 7 4 2 5 8
0 0 0 0 0 1 0 0 3 0 4 2 3 10 16 22 5 7 4 3 2 3
0 0 1 1 0 2 1 0 1 1 0 2 0 10 19 12 8 6 6 6 4 3
0 0 1 0 0 1 0 4 0 12 0 0 2 6 20 11 10 8 5 3 4 6
0 0 1 0 0 0 0 2 0 5 0 0 3 9 25 15 10 12 5 10 9 6
CIN
-0 -0 -0 -0 -0 -0 -0 -0 -0 -0 -0 -2 -1 -0 -0 -0 -0 -0 -0 -0 -0 -1
-0 -0 -0 -0 -0 -1 -0 -0 -0 -0 -0 -0 -0 -0 -0 -0 -0 -0 -0 -0 -0 -0
-0 -0 -0 -0 -1 -0 -1 -0 -0 -0 -0 -0 -0 -0 -0 -0 -0 -0 -0 -0 -0 -0
-0 -0 -0 -0 -0 -1 -0 -0 -0 -0 -0 -0 -1 -0 -0 -0 -0 -0 -0 -0 -0 -0
-0 -0 -0 -0 -0 -0 -0 -1 -0 -0 -0 -0 -0 -0 -0 -0 -0 -0 -0 -0 -0 -0
-0 -0 -0 -0 -0 -0 -0 -1 -1 -0 -0 -0 -0 -0 -0 -0 -0 -0 -0 -0 -0 -0
-0 -0 -0 -0 -0 -1 -1 -1 -1 -0 -0 -0 -0 -0 -0 -0 -0 -0 -0 -0 -0 -0
-0 -0 -0 -0 -0 -0 -0 -0 -0 -0 -0 -0 -0 -0 -0 -0 -0 -0 -0 -0 -0 -0
-0 -0 -1 -0 -0 -0 -0 -0 -0 -0 -0 -0 -0 -0 -0 -0 -0 -0 -0 -0 -0 -0
-0 -0 -0 -0 -0 -0 -0 -0 -0 -0 -0 -0 -0 -0 -0 -0 -0 -0 -0 -0 -0 -0
-0 -0 -0 -0 -0 -0 -0 -0 -0 -1 -0 -1 -0 -0 -0 -0 -0 -0 -0 -0 -0 -0
-0 -0 -0 -0 -0 -0 -0 -0 -0 -0 -0 -0 -0 -0 -0 -0 -0 -0 -0 -0 -0 -0
-0 -0 -0 -0 -0 -0 -0 -0 -0 -0 -0 -0 -0 -0 -0 -0 -0 -0 -0 -0 -0 -0
-0 -0 -0 -0 -0 -0 -0 -0 -1 -0 -0 -0 -0 -0 -0 -0 -0 -0 -0 -0 -0 -0
Wind_Speed
6 5 6 9 10 9 9 10 14 13 14 17 17 16 14 11 11 13 14 20 19 16
7 7 7 9 9 8 11 10 13 14 16 15 16 13 14 11 13 14 15 16 18 18
7 7 8 8 10 11 11 13 13 14 15 15 14 13 15 13 14 16 14 13 19 18
9 9 9 10 11 11 12 13 14 14 15 16 12 15 14 18 17 18 18 18 19 21
8 9 9 10 11 12 13 13 14 14 14 14 13 13 14 17 18 17 19 19 19 20
9 9 10 11 12 12 13 12 13 14 13 15 15 13 15 16 17 17 17 18 17 19
9 10 10 11 12 13 12 12 13 13 13 13 14 13 16 17 17 16 16 17 16 13
10 10 10 11 11 12 12 12 12 12 12 13 12 11 18 17 15 16 16 15 16 12
10 11 10 11 12 12 13 13 12 12 12 13 10 24 27 24 13 14 14 14 13 14
10 11 11 11 11 12 12 13 11 12 12 13 12 25 27 28 10 11 12 13 13 12
11 11 11 11 11 11 11 12 11 11 12 13 12 25 26 28 14 11 12 11 12 13
10 11 11 12 12 11 11 11 11 11 12 14 13 25 27 23 13 13 14 12 11 14
10 10 11 11 11 10 10 11 10 10 11 17 13 23 27 24 11 14 11 12 12 18
10 10 10 10 9 10 10 11 10 9 10 12 14 15 26 28 13 12 12 11 11 11
Wind_Direction
311 316 319 335 340 329 329 327 325 324 316 316 316 304 306 325 303 296 291 286 282 269
318 317 314 314 316 330 324 324 328 326 323 321 310 318 329 316 310 302 294 283 281 281
314 320 321 321 320 316 326 325 330 329 326 323 324 337 332 324 316 311 301 295 288 280
333 333 334 333 331 336 328 328 332 331 328 323 336 338 333 331 322 320 312 307 309 300
331 335 338 336 331 334 331 334 330 332 335 332 339 338 338 331 326 325 321 315 322 325
337 337 337 336 336 334 331 331 338 333 338 338 343 330 341 332 327 325 323 322 322 339
340 336 334 336 337 332 331 332 335 338 336 337 337 331 340 331 331 328 329 331 325 356
337 335 334 339 336 335 333 333 335 332 333 339 340 335 339 335 334 329 333 333 336 334
337 337 341 339 341 336 335 331 336 335 333 340 337 337 340 343 335 330 332 335 336 334
338 340 342 338 341 337 335 331 334 334 336 338 336 343 340 342 335 325 328 335 333 337
338 340 339 339 341 336 333 331 329 332 338 338 338 344 341 345 337 336 334 331 336 334
336 336 338 340 337 335 334 330 331 333 343 341 341 345 345 351 343 341 344 342 338 356
336 336 334 337 335 331 330 332 329 339 347 342 340 341 352 356 347 342 346 346 348 352
336 332 339 334 334 335 337 336 332 355 344 345 345 342 354 358 354 348 344 345 349 345